ONEWEB-0291, 49081

Orbit data source: Space-Track

ONEWEB-0291, 49081 is a payload satellite owned by One Web (NAA) (UK) in LEO that was launched on Sat, 21 Aug 2021 UTC via a SOYUZ-2-1B launch vehicle from the Tyuratam Missile And Space Complex (TTMTR). Payload-class satellites include a variety of spacecraft equipped with specific instruments for various scientific and technological missions. These include communications satellites like Starlink; space stations such as the ISS; scientific satellites like the Hubble; Earth observation satellites from companies like Planet Labs, Umbra, and HawkEye 360; GPS; miniature CubeSats for education and research; and military/defense satellites.

Loading next visibility...
Identifier
49081, 2021-075G
Orbit
LEO
Country
Flag of UKUK
Related business
Manufacturer
One Web
Mission
Operational Commercial Communications
Bus & Motor
ARROW, Unknown motor
Mass
148 kg wet, ~140 kg dry
Launch date (UTC)
2021-08-21 (5 years ago)
Launch vehicle
SOYUZ-2-1B
Launch site
Tyuratam Missile And Space Complex (TTMTR)
Object type
Payload
Rocket body
Debris
Shape & HBR
Trap Box + 2 Pan, 6.7 m
Radar Cross Section
3.464 m², Large (>1 m²)

Expand to show TLE details & history
Last TLE update: 23 hours ago

TLE from 23 hours ago
0 ONEWEB-0291
1 49081U 21075G   26175.22534783 -.00000035  00000-0 -12417-3 0  9990
2 49081  87.9135   4.4618 0002262  90.8194 269.3197 13.17649265234531
Epoch: 2026-06-24T05:24Z
TLE epoch observation values (Epoch: 2026-06-24T05:24:30.052Z)
Latitude
Longitude
10.95097°
Altitude
1,196.631 km
Speed
7.256 km/s
True Right ascension
00h 17m 50s
True Declination
0° 00' 00"
Sunlit
Object was in daylight at epoch
Visualization orbit readout
Latitude
Unknown
Longitude
Unknown
Altitude
Unknown
Speed
Unknown
Apparent Right ascension
Unknown
Apparent Declination
Unknown
Sunlit
N/A
Visualization observer readout
Local Sidereal Time
15:29:31
Azimuth
Unknown
Elevation
Unknown
Doppler factor
Unknown
Orbital elements
Apogee altitude
1,192.533 km
Perigee altitude
1,189.109 km
Semi-major axis
7,568.958 km
Eccentricity
0.00023
Inclination
87.9135°
RAAN
4.4618°
Arg. of periapsis
90.8194°
True anomaly
269.29378°
Mean anomaly
269.3197°
Eccentric anomaly
269.30674°
Mean motion
3.29601 °/min
Orbital period
109.22 mins
BSTAR
-0.00012417
Loading maneuver chart data...
Computing Atmospheric mass density...
Loading historical data...
Loading historical data...
Loading historical data...
Loading historical data...
Loading historical data...
Loading historical data...
Loading historical data...

Documentation

Showing up to 5 results
|